Location: Huntsville
(34.7300°N, 86.5860°W)
Time: 15:46:22
(UTC-06:00)

OTV 5 (USA 277) - Visible Passes

Search period start: 12 November 2018 00:00
Search period end: 22 November 2018 00:00
Orbit: 335 x 353 km, 54.6° (Epoch: 08 November)

Date Brightness Start Highest point End Pass type
(mag) Time Alt. Az. Time Alt. Az. Time Alt. Az.
12 Nov ? 17:54:24 10° NNW 17:57:10 37° NE 17:57:10 37° NE visible
13 Nov ? 18:17:58 10° NW 18:20:48 45° SW 18:21:10 42° SSW visible
14 Nov ? 17:06:52 10° NNW 17:09:36 35° NE 17:12:20 10° ESE visible
14 Nov ? 18:43:12 10° WSW 18:44:12 11° WSW 18:45:12 10° SW visible
15 Nov ? 17:30:23 10° NW 17:33:14 49° SW 17:36:04 10° SSE visible
16 Nov ? 17:55:25 10° W 17:56:38 12° WSW 17:57:51 10° SSW visible
18 Nov ? 17:07:40 10° W 17:09:04 13° SW 17:10:27 10° SSW visible
